www.pogodaiklimat.ru

Погода и климат >> Архив погоды >> Австралия >> Западная Австралия >> Каррата


ПОГОДА в Каррате

  • Прогноз погоды в Каррате
  • Монитор погоды в Каррате

АРХИВ ПОГОДЫ в Каррате

Время (UTC), дата Ветер
(напр.,м/с)
 
Видим.   Явления Облачность Т
(С)
Тd
(С)
f
(%)
Тe
(С)
Тes
(С)
Комфортность P
(гПа)
Po
(гПа)
Тmin
(С)
Tmax
(С)
R
(мм)
R24
(мм)
S
(см)
04 9.01 С 5 н/о н/о +35.4 +21.6 45 +43 +43 опасность
перегрева
1006.3 1005.7
06 9.01 СЗ 6 н/о н/о +35.5 +24.1 52 +47 +47 опасность
перегрева
1005.8 1005.2
07 9.01 С 5 н/о 1/0
[]
+34.9 +25.1 57 +49 +56 опасность
перегрева
1005.3 1004.7
09 9.01 С 6 н/о н/о +33.3 +25.3 63 +48 +48 опасность
перегрева
1005.2 1004.6
10 9.01 СЗ 7 н/о н/о +31.3 +25.2 70 +45 +45 опасность
перегрева
1005.8 1005.2
12 9.01 СЗ 5 н/о н/о +30.0 +25.3 76 +44 +44 опасность
перегрева
1006.6 1006.0
13 9.01 СЗ 5 н/о 5/0
[]
+30.1 +24.7 73 +43 +43 опасность
перегрева
1006.5 1005.9 +37.7
15 9.01 ЮЗ 4 н/о н/о +29.7 +25.0 76 +43 +43 опасность
перегрева
1007.3 1006.7
16 9.01 СЗ 3 н/о н/о +29.1 +25.5 81 +43 +43 опасность
перегрева
1006.2 1005.6
18 9.01 З 5 н/о н/о +28.6 +26.2 87 +43 +43 опасность
перегрева
1005.1 1004.5
19 9.01 З 5 н/о н/о +28.6 +26.4 88 +44 +44 опасность
перегрева
1004.9 1004.3
21 9.01 З 2 н/о н/о +28.6 +26.4 88 +44 +44 опасность
перегрева
1005.5 1004.9
22 9.01 Ю 2 н/о н/о +27.7 +26.1 91 +42 +42 опасность
перегрева
1006.1 1005.5
00 10.01 ЮЗ 2 н/о н/о +30.9 +25.7 74 +46 +46 опасность
перегрева
1005.9 1005.3
01 10.01 З 3 н/о н/о +34.5 +25.3 59 +49 +49 опасность
перегрева
1005.8 1005.2 +27.7
03 10.01 СЗ 6 н/о н/о +37.0 +25.5 52 +51 +51 опасность
перегрева
1005.1 1004.5
04 10.01 С 7 н/о н/о +35.2 +26.5 61 +52 +52 опасность
перегрева
1004.6 1004.0
06 10.01 С 7 н/о н/о +36.4 +25.9 55 +52 +52 опасность
перегрева
1003.9 1003.3
07 10.01 СЗ 6 н/о 1/0
[]
+36.9 +25.4 52 +51 +56 опасность
перегрева
1003.4 1002.8
09 10.01 СЗ 7 н/о н/о +38.4 +20.2 35 +44 +44 опасность
перегрева
1002.7 1002.1
10 10.01 СЗ 7 н/о н/о +37.5 +19.0 34 +42 +42 опасность
перегрева
1002.8 1002.2
12 10.01 З 7 н/о н/о +35.4 +23.0 49 +45 +45 опасность
перегрева
1003.5 1002.9
13 10.01 З 6 н/о н/о +34.6 +23.0 51 +45 +45 опасность
перегрева
1004.0 1003.4 +39.9
15 10.01 ЮЗ 5 н/о н/о +34.0 +15.9 34 +36 +36 душно 1004.3 1003.7
16 10.01 ЮЗ 5 н/о н/о +33.3 +5.8 18 +31 +31 жарко 1004.1 1003.5
18 10.01 Ю 5 н/о н/о +32.2 +4.1 17 +30 +30 жарко 1003.3 1002.7
19 10.01 Ю 4 н/о н/о +30.0 +3.9 19 +28 +28 жарко 1003.5 1002.9
21 10.01 ЮВ 2 н/о н/о +29.4 +4.1 20 +28 +28 жарко 1005.1 1004.5
22 10.01 В 3 н/о н/о +26.9 +19.0 62 +32 +32 очень
душно
1006.2 1005.6
00 11.01 В 5 н/о н/о +31.8 +23.6 62 +43 +43 опасность
перегрева
1006.8 1006.2
01 11.01 В 4 н/о н/о +34.7 +22.7 50 +44 +44 опасность
перегрева
1006.8 1006.2 +26.8
03 11.01 СВ 7 н/о н/о +35.4 +24.0 52 +47 +47 опасность
перегрева
1006.2 1005.6
04 11.01 СВ 7 н/о н/о +36.9 +23.7 47 +48 +48 опасность
перегрева
1005.6 1005.0
06 11.01 С 6 н/о н/о +37.8 +22.7 42 +47 +47 опасность
перегрева
1004.5 1003.9
07 11.01 СЗ 7 н/о 1/0
[]
+37.6 +24.0 46 +49 +53 опасность
перегрева
1004.2 1003.6
09 11.01 СЗ 6 н/о н/о +36.8 +21.0 40 +44 +44 опасность
перегрева
1004.4 1003.8
10 11.01 С 6 н/о н/о +34.4 +21.8 48 +43 +43 опасность
перегрева
1004.9 1004.3
12 11.01 С 5 н/о н/о +32.3 +22.1 55 +41 +41 опасность
перегрева
1006.0 1005.4
13 11.01 СЗ 6 н/о н/о +31.3 +24.2 66 +43 +43 опасность
перегрева
1006.4 1005.8 +40.5
15 11.01 СЗ 6 н/о н/о +31.0 +22.3 60 +40 +40 очень
душно
1006.6 1006.0
16 11.01 СЗ 6 н/о н/о +30.5 +22.4 62 +40 +40 очень
душно
1006.2 1005.6
18 11.01 З 5 н/о н/о +30.2 +25.3 75 +44 +44 опасность
перегрева
1005.0 1004.4
19 11.01 З 5 н/о н/о +29.9 +19.6 54 +36 +36 очень
душно
1005.2 1004.6
21 11.01 Ю 1 н/о н/о +25.5 +18.4 65 +30 +30 душно 1006.4 1005.8
22 11.01 ЮВ 3 н/о н/о +26.1 +21.7 77 +34 +34 очень
душно
1007.3 1006.7
00 12.01 СВ 4 н/о н/о +30.4 +25.5 75 +45 +45 опасность
перегрева
1008.3 1007.7
01 12.01 В 8 н/о н/о +31.8 +25.4 69 +46 +46 опасность
перегрева
1009.3 1008.6 +25.2
03 12.01 СВ 9 н/о н/о +32.0 +25.1 67 +46 +46 опасность
перегрева
1008.9 1008.3
04 12.01 СВ 8 н/о 1/1 300 м
[]
+31.6 +25.5 70 +46 +50 опасность
перегрева
1008.6 1008.0
06 12.01 СВ 8 н/о н/о +32.0 +25.1 67 +46 +46 опасность
перегрева
1007.6 1007.0
07 12.01 СВ 6 н/о н/о +32.5 +25.6 67 +47 +47 опасность
перегрева
1007.0 1006.4
09 12.01 СВ 5 н/о н/о +33.0 +25.3 64 +47 +47 опасность
перегрева
1006.7 1006.1
10 12.01 СЗ 5 н/о н/о +31.5 +22.8 60 +41 +41 опасность
перегрева
1006.9 1006.3
12 12.01 СЗ 4 н/о н/о +30.1 +24.0 70 +42 +42 опасность
перегрева
1007.9 1007.3
13 12.01 З 4 н/о н/о +30.3 +21.7 60 +39 +39 очень
душно
1008.1 1007.5 +33.8
15 12.01 ЮЗ 5 н/о н/о +29.3 +24.6 76 +42 +42 опасность
перегрева
1008.0 1007.4
16 12.01 З 4 н/о н/о +29.5 +23.7 71 +40 +40 очень
душно
1007.7 1007.1
18 12.01 З 4 н/о н/о +29.4 +23.8 72 +40 +40 очень
душно
1007.2 1006.6
19 12.01 З 5 н/о н/о +29.2 +24.7 77 +42 +42 опасность
перегрева
1006.6 1006.0
21 12.01 З 5 н/о н/о +29.7 +22.9 67 +40 +40 очень
душно
1006.6 1006.0
22 12.01 З 5 н/о 10/0
[]
+29.5 +22.0 64 +38 +38 очень
душно
1007.5 1006.9
00 13.01 З 5 н/о н/о +31.9 +20.8 52 +39 +39 очень
душно
1007.6 1007.0
01 13.01 З 6 н/о н/о +33.5 +19.6 44 +39 +39 очень
душно
1007.2 1006.6 +29.1
03 13.01 СЗ 5 н/о н/о +37.6 +20.4 37 +44 +44 опасность
перегрева
1006.5 1005.9
04 13.01 З 8 н/о н/о +38.5 +22.5 40 +47 +47 опасность
перегрева
1005.5 1004.9
06 13.01 З 9 н/о н/о +38.8 +23.2 41 +48 +48 опасность
перегрева
1004.3 1003.7
07 13.01 З 10 н/о н/о +38.2 +20.9 37 +45 +45 опасность
перегрева
1003.4 1002.8
09 13.01 З 10 н/о н/о +36.2 +23.1 47 +46 +46 опасность
перегрева
1002.7 1002.1
10 13.01 З 12 н/о н/о +34.7 +23.4 52 +45 +45 опасность
перегрева
1002.7 1002.1
12 13.01 З 11 н/о н/о +33.4 +20.9 48 +41 +41 опасность
перегрева
1003.1 1002.5
13 13.01 З 9 н/о 5/0
[]
+32.6 +22.4 55 +42 +42 опасность
перегрева
1003.5 1002.9 +39.8
15 13.01 З 8 н/о н/о +31.9 +22.0 56 +41 +41 опасность
перегрева
1002.9 1002.3
16 13.01 З 6 н/о 4/0
[]
+31.6 +21.2 54 +39 +39 очень
душно
1002.3 1001.7
18 13.01 З 4 н/о н/о +31.2 +19.2 49 +37 +37 очень
душно
1001.9 1001.3
19 13.01 З 5 н/о 5/0
[]
+31.4 +18.0 45 +36 +36 очень
душно
1001.4 1000.8
21 13.01 З 4 н/о н/о +30.4 +18.2 48 +35 +35 очень
душно
1001.9 1001.3
22 13.01 З 4 н/о 6/0
[]
+29.5 +17.3 48 +34 +34 очень
душно
1002.8 1002.2
00 14.01 В 16 н/о н/о +33.6 +23.0 54 +44 +44 опасность
перегрева
1004.6 1004.0
01 14.01 В 15 9000 м 1/0
[]
+34.1 +24.1 56 +46 +46 опасность
перегрева
1005.3 1004.7 +29.5
03 14.01 СВ 12 н/о н/о +33.1 +25.6 65 +48 +48 опасность
перегрева
1004.9 1004.3
04 14.01 СВ 10 н/о н/о +33.3 +25.0 62 +47 +47 опасность
перегрева
1004.6 1004.0
06 14.01 СВ 10 н/о н/о +32.2 +24.8 65 +45 +45 опасность
перегрева
1004.2 1003.6
07 14.01 СВ 10 н/о н/о +32.1 +24.9 66 +46 +46 опасность
перегрева
1003.9 1003.3
09 14.01 С 7 н/о н/о +31.8 +24.1 64 +44 +44 опасность
перегрева
1003.3 1002.7
10 14.01 С 6 н/о 6/0
[]
+30.9 +24.1 67 +43 +43 опасность
перегрева
1003.0 1002.4
12 14.01 З 2 н/о н/о +30.6 +23.3 65 +41 +41 опасность
перегрева
1006.4 1005.8
13 14.01 Ю 5 н/о 10/0
[]
+30.7 +22.6 62 +40 +40 очень
душно
1006.7 1006.1 +35.2
15 14.01 СВ 3 н/о н/о +30.1 +22.5 64 +39 +39 очень
душно
1005.9 1005.3
16 14.01 СВ 4 н/о 8/0
[]
+30.3 +23.2 66 +41 +41 опасность
перегрева
1005.1 1004.5
18 14.01 В 3 н/о н/о +29.3 +24.4 75 +41 +41 опасность
перегрева
1003.9 1003.3
19 14.01 В 2 н/о 8/0
[]
+29.1 +24.2 75 +41 +41 опасность
перегрева
1003.8 1003.2
21 14.01 Ю 4 н/о н/о +27.4 +22.1 73 +36 +36 очень
душно
1004.3 1003.7
22 14.01 Ю 2 н/о 6/0
[]
+27.3 +21.3 70 +35 +35 очень
душно
1005.1 1004.5
00 15.01 С 2 н/о н/о +31.8 +23.1 60 +42 +42 опасность
перегрева
1006.1 1005.5
01 15.01 СЗ 3 н/о 5/0
[]
+33.6 +21.4 49 +41 +49 опасность
перегрева
1006.0 1005.4 +27.3
03 15.01 С 4 н/о н/о +34.6 +25.7 60 +50 +50 опасность
перегрева
1005.5 1004.9
04 15.01 СЗ 5 н/о 1/0
[]
+35.5 +25.4 56 +50 +62 опасность
перегрева
1005.1 1004.5
06 15.01 С 6 н/о н/о +34.8 +25.6 59 +50 +50 опасность
перегрева
1004.4 1003.8
07 15.01 С 6 н/о 4/0
[]
+33.7 +24.3 58 +46 +51 опасность
перегрева
1004.2 1003.6
09 15.01 СЗ 6 н/о н/о +33.2 +23.8 58 +45 +45 опасность
перегрева
1003.5 1002.9
10 15.01 СЗ 6 н/о 10/0
[]
+31.6 +25.0 68 +45 +45 опасность
перегрева
1003.5 1002.9
12 15.01 З 6 н/о н/о +30.1 +25.6 77 +44 +44 опасность
перегрева
1004.9 1004.3
13 15.01 СЗ 5 н/о 10/0
[]
+30.1 +24.7 73 +43 +43 опасность
перегрева
1005.5 1004.9 +36.3
15 15.01 СЗ 5 н/о н/о +30.8 +22.9 63 +41 +41 опасность
перегрева
1006.1 1005.5
16 15.01 СЗ 5 н/о 9/0
[]
+30.9 +24.1 67 +43 +43 опасность
перегрева
1005.4 1004.8
18 15.01 З 3 н/о н/о +30.1 +24.9 74 +43 +43 опасность
перегрева
1004.7 1004.1
19 15.01 СЗ 5 н/о 8/0
[]
+30.1 +25.6 77 +44 +44 опасность
перегрева
1004.3 1003.7
21 15.01 СЗ 5 н/о н/о +29.3 +25.7 81 +43 +43 опасность
перегрева
1005.0 1004.4
22 15.01 СЗ 4 н/о 8/0
[]
+29.0 +25.6 82 +43 +43 опасность
перегрева
1006.0 1005.4
00 16.01 З 5 н/о н/о +31.0 +22.9 62 +41 +41 опасность
перегрева
1006.9 1006.3
01 16.01 З 5 н/о 9/0
[]
+31.3 +24.4 67 +44 +47 опасность
перегрева
1007.0 1006.4 +29.0
03 16.01 З 4 н/о н/о +33.8 +22.9 53 +44 +44 опасность
перегрева
1005.8 1005.2

 

Местоположение метеостанции Каррата (Западная Австралия, Австралия): широта -20.72 долгота 116.77 высота над уровнем моря 6 м.

В архиве по умолчанию представлена погода в Каррате за последнюю неделю. Архивные данные за месяц целиком и за предыдущие месяцы, начиная с января 2011 года, Вы можете получить, выбрав интересующий диапазон дат из раскрывающегося списка и нажав кнопку "Ввод!".


*Определитесь, кто Вы:
робот инопланетянин человек

Внимание! Время в таблицах - всемирное. Для получения местного времени необходимо прибавить поправку, которая равна 8 ч.

Смотрите также архив погоды в соседних городах и на ближайших метеорологических станциях:

Погода в Роборне (Западная Австралия, Австралия) (40 км)
Погода в Марди (Западная Австралия, Австралия) (98 км)
Погода на Острове Варанас (Западная Австралия, Австралия) (125 км)
Погода в Барроу-Айленд (Западная Австралия, Австралия) (144 км)
Погода в Порт-Хедленде (Западная Австралия, Австралия) (198 км)
Погода на Острове Тевенард (Западная Австралия, Австралия) (199 км)
Погода в Онслоу (Западная Австралия, Австралия) (201 км)
Погода в Параберду (Западная Австралия, Австралия) (291 км)
Погода в Марбл-баре (Западная Австралия, Австралия) (314 км)
Погода в Лермонте (Западная Австралия, Австралия) (325 км)

Пояснения к столбцам:

Ветер - указаны скорость ветра в м/с - средняя за 10 мин, порывы в срок и между сроками (в фигурных скобках) и направление, откуда дует ветер: С - северный, СВ - северо-восточный, В - восточный, ЮВ - юго-восточный, Ю - южный, ЮЗ - юго-западный, З - западный, СЗ - северо-западный.
Видимость - горизонтальная дальность видимости в метрах или километрах. При видимости от 1 до 10 км при отсутствии осадков обычно наблюдается дымка, при ухудшении видимости до 1 км и менее - туман. В сухую погоду видимость может ухудшаться дымом, пылью или мглою.
Явления - указаны атмосферные явления, наблюдавшиеся в срок или в последний час перед сроком; фигурными скобками обозначены явления, наблюдавшиеся между сроками (за 1-3 часа до срока); квадратными скобками обозначены град или гололедные отложения с указанием их диаметра в мм.
Облачность - указаны через наклонную черту общая и нижняя облачность в баллах и высота нижней границы облаков в метрах; квадратными скобками обозначены формы облаков: Ci - перистые, Cs - перисто-слоистые, Cc - перисто-кучевые, Ac - высококучевые, As - высокослоистые, Sc - слоисто-кучевые, Ns - слоисто-дождевые, Cu - кучевые, Cb - кучево-дождевые. Подробнее классификацию облаков см. в Атласе облаков (PDF).
T - Температура воздуха - температура, измеренная на высоте 2 м над землей.
Td - Температура точки росы - температура, при понижении до которой содержащийся в воздухе водяной пар достигнет насыщения.
f - Относительная влажность воздуха - влажноcть воздуха, измеренная на высоте 2 м над землей.
Te - Эффективная температура - температура, которую ощущает одетый по сезону человек в тени. Характеристика душности погоды. При расчете учитывается влияние влажности воздуха и скорости ветра на теплоощущения человека.
Tes - Эффективная температура на солнце - температура, которую ощущает человек, с поправкой на солнечный нагрев. Характеристика знойности погоды. Зависит от высоты солнца над горизонтом, облачности и скорости ветра. Ночью, в пасмурную погоду, а также при ветре 12 м/с и более поправка равна нулю.
P - Атмосферное давление - приведенное к уровню моря атмосферное давление.
Po - Атмосферное давление - измеренное на уровне метеостанции атмосферное давление.
Tmin - Минимальная температура - минимум температуры воздуха на высоте 2 м над землей.
Tmax - Максимальная температура - максимум температуры воздуха на высоте 2 м над землей.
R - Количество осадков - Количество выпавших осадков за период времени, мм. При наведении курсора мыши на число - период времени, за который выпало указанное количество осадков.
R24 - Количество осадков - Количество выпавших осадков за 24 часа, мм.
S - Снежный покров - Высота снежного покрова, см. При наведении курсора мыши на число - состояние снежного покрова и степень покрытия местности в баллах.